www.pogodaiklimat.ru

Погода и климат >> Архив погоды >> Индия >> Чхаттисгарх >> Амбикапур


ПОГОДА в Амбикапуре

  • Прогноз погоды в Амбикапуре
  • Монитор погоды в Амбикапуре

АРХИВ ПОГОДЫ в Амбикапуре

Время (UTC), дата Ветер
(напр.,м/с)
 
Видим.   Явления Облачность Т
(С)
Тd
(С)
f
(%)
Тe
(С)
Тes
(С)
Комфортность P
(гПа)
Po
(гПа)
Тmin
(С)
Tmax
(С)
R
(мм)
R24
(мм)
S
(см)
00 13.05 штиль 0 4000 м 1/1 750 м
[Sc]
+26.6 +16.3 53 +30 +30 душно 1003.8 937.3
03 13.05 С 2 4000 м 4/1 750 м
[Sc Ac trans]
+31.8 +16.9 41 +35 +43 очень
душно
1006.1 940.5 +25.9
06 13.05 С 1 4000 м 5/3 750 м
[Sc Ac trans]
+34.6 +13.4 28 +35 +50 очень
жарко
1004.8 939.8
09 13.05 З 1 4000 м ясно +38.4 +12.4 21 +38 +55 опасность
солнечного
удара
1001.7 937.6
12 13.05 З 1 4000 м {гроза, дождь} 8/5 750 м
[Cb cap Ac trans]
+28.6 +18.0 53 +33 +34 очень
душно
1003.8 937.5 +38.6 0.3
15 13.05 В 1 4000 м 3/3 750 м
[Sc]
+29.0 +15.9 45 +32 +32 душно 1003.4 937.3 0.3
18 13.05 штиль 0 4000 м ясно +26.2 +16.6 56 +30 +30 душно 1004.8 938.0 0.3
21 13.05 штиль 0 4000 м 1/1 750 м
[Sc]
+25.6 +15.8 55 +29 +29 душно 1004.2 937.2 0.3
00 14.05 штиль 0 4000 м 1/1 750 м
[Sc]
+23.2 +15.5 62 +27 +27 душно 1005.6 938.1 0.3
03 14.05 В 1 4000 м 5/4 750 м
[Sc Ac trans]
+29.0 +15.1 43 +32 +38 душно 1006.5 940.4 +22.6 0.3
06 14.05 З 1 4000 м ясно +33.6 +13.2 29 +34 +60 опасность
солнечного
удара
1005.3 940.1
09 14.05 СЗ 1 4000 м 1/1 900 м
[Cu hum]
+38.4 +11.4 20 +38 +53 опасность
солнечного
удара
1001.9 937.9
12 14.05 СЗ 1 4000 м 4/4 750 м
[]
+36.0 +14.1 27 +37 +38 душно 1000.7 936.2 +38.4
15 14.05 штиль 0 4000 м 6/4 750 м
[Sc Ac trans]
+32.2 +16.6 39 +35 +35 очень
душно
1002.7 937.4
18 14.05 штиль 0 4000 м 6/4 750 м
[Sc Ac trans]
+29.6 +15.5 42 +32 +32 душно 1004.5 938.5
21 14.05 штиль 0 4000 м 8/4 750 м
[Sc Ac trans]
+27.4 +15.8 49 +30 +30 жарко 1004.2 937.8
00 15.05 штиль 0 4000 м 3/0
[Ac trans]
+26.4 +17.2 57 +30 +30 душно 1005.2 938.5
03 15.05 штиль 0 4000 м ясно +33.0 +16.1 36 +36 +49 очень
душно
1005.9 940.5 +25.2
06 15.05 СЗ 1 4000 м ясно +37.0 +9.9 19 +36 +61 опасность
солнечного
удара
1004.7 940.1
09 15.05 З 1 4000 м 3/3 900 м
[Cu hum]
+39.0 +6.2 14 +36 +48 очень
жарко
1002.1 938.1
12 15.05 З 1 4000 м 3/3 750 м
[Sc Ac trans]
+38.2 +13.0 22 +38 +39 очень
жарко
1000.8 936.9 +40.0
15 15.05 С 1 4000 м ясно +33.6 +14.5 32 +35 +35 душно 1004.4 939.2
21 15.05 штиль 0 4000 м 4/3 750 м
[Sc Ac trans]
+28.2 +16.0 48 +31 +31 душно 1004.8 938.5
00 16.05 штиль 0 4000 м 3/0
[Ac trans]
+26.0 +15.6 53 +29 +29 душно 1005.9 939.1
03 16.05 штиль 0 4000 м ясно +33.2 +15.2 34 +35 +49 душно 1006.7 941.3 +25.3
06 16.05 З 1 4000 м 4/4 750 м
[Sc]
+37.0 +13.0 24 +37 +53 опасность
солнечного
удара
1005.6 941.0
09 16.05 З 2 4000 м 3/3 900 м
[Cu hum]
+39.4 +13.1 21 +39 +50 очень
жарко
1002.5 938.7
12 16.05 штиль 0 4000 м 5/5 750 м
[Cu Sc]
+38.4 +15.6 26 +40 +41 очень
душно
1001.6 937.6 +39.6
15 16.05 штиль 0 4000 м 1/1 750 м
[Sc]
+32.0 +16.8 40 +35 +35 очень
душно
1004.7 939.1
18 16.05 штиль 0 4000 м ясно +30.0 +17.2 46 +34 +34 очень
душно
1005.4 939.3
21 16.05 штиль 0 4000 м ясно +28.2 +16.8 50 +32 +32 душно 1004.3 938.1
00 17.05 штиль 0 4000 м ясно +26.0 +16.7 57 +30 +30 душно 1005.2 938.3
03 17.05 штиль 0 4000 м ясно +32.0 +17.5 42 +36 +49 очень
душно
1006.3 940.7 +25.6
06 17.05 З 1 4000 м ясно +37.0 +17.7 32 +40 +66 опасность
солнечного
удара
1004.9 940.3
09 17.05 СЗ 1 4000 м 5/5 750 м
[Cu Sc]
+39.6 +14.3 23 +40 +49 очень
душно
1002.0 938.1
12 17.05 С 1 4000 м 4/3 750 м
[Sc Ac trans]
+38.6 +15.0 25 +40 +41 очень
душно
997.3 936.2 +40.2
15 17.05 С 1 4000 м 3/1 750 м
[Sc Ac trans]
+33.8 +17.6 38 +37 +37 очень
душно
1003.2 938.1
18 17.05 штиль 0 4000 м 3/0
[Ac trans]
+31.2 +17.6 44 +35 +35 очень
душно
1004.0 938.5
21 17.05 штиль 0 4000 м ясно +28.0 +16.5 50 +32 +32 душно 1004.2 937.8
00 18.05 С 1 4000 м 3/3 750 м
[Sc]
+26.6 +16.7 55 +30 +30 душно 1005.0 938.3
03 18.05 З 1 4000 м ясно +32.2 +17.0 40 +36 +47 очень
душно
1005.6 940.2 +26.2
06 18.05 З 2 4000 м ясно +37.4 +14.5 26 +38 +62 опасность
солнечного
удара
1004.3 939.9
09 18.05 СЗ 1 4000 м 4/3 750 м
[Sc Ac trans]
+40.0 +11.1 18 +39 +50 очень
жарко
1001.8 938.1
12 18.05 СВ 2 4000 м 1/0
[Ac trans]
+38.0 +12.2 21 +37 +39 очень
жарко
1001.2 937.1 +40.6
15 18.05 штиль 0 4000 м 1/0
[Ac trans]
+33.0 +15.3 35 +35 +35 душно 1004.2 938.9
18 18.05 штиль 0 4000 м ясно +30.4 +15.8 41 +33 +33 душно 1005.7 939.8
21 18.05 штиль 0 4000 м ясно +28.4 +15.9 47 +32 +32 душно 1005.0 938.8
00 19.05 С 1 4000 м 1/0
[Ci fib]
+26.8 +15.4 50 +30 +30 душно 1006.1 939.3
03 19.05 штиль 0 4000 м 5/3 750 м
[Sc Ac trans]
+33.2 +15.2 34 +35 +43 душно 1006.5 941.1 +25.6
06 19.05 З 1 4000 м 5/3 750 м
[Sc Ac trans]
+37.2 +13.2 24 +37 +52 опасность
солнечного
удара
1005.3 940.9
09 19.05 З 1 4000 м 5/5 750 м
[Cu Sc]
+40.4 +10.2 16 +39 +47 очень
жарко
1002.3 938.7
12 19.05 З 1 4000 м 1/1 750 м
[Sc]
+38.0 +12.7 22 +38 +39 очень
жарко
1002.2 938.0 +40.4
15 19.05 С 1 4000 м 4/3 750 м
[Sc Ac trans]
+34.0 +15.9 34 +36 +36 душно 1005.3 940.3
18 19.05 штиль 0 4000 м 3/3 750 м
[Sc]
+31.2 +17.2 43 +35 +35 очень
душно
1007.1 941.5

 

Местоположение метеостанции Амбикапур (Чхаттисгарх, Индия): широта 23.17 долгота 83.25 высота над уровнем моря 611 м.

В архиве по умолчанию представлена погода в Амбикапуре за последнюю неделю. Архивные данные за месяц целиком и за предыдущие месяцы, начиная с января 2011 года, Вы можете получить, выбрав интересующий диапазон дат из раскрывающегося списка и нажав кнопку "Ввод!".


*Определитесь, кто Вы:
робот инопланетянин человек

Внимание! Время в таблицах - всемирное. Для получения местного времени необходимо прибавить поправку, которая равна 5.5 ч.

Смотрите также архив погоды в соседних городах и на ближайших метеорологических станциях:

Погода в Далтонгандже (Джаркханд, Индия) (129 км)
Погода в Сундаргархе (Орисса, Индия) (142 км)
Погода в Пендра-роуде (Чхаттисгарх, Индия) (145 км)
Погода в Биласпуре (Чхаттисгарх, Индия) (163 км)
Погода в Джхарсугуде (Орисса, Индия) (163 км)
Погода в Харакаде (Орисса, Индия) (194 км)
Погода в Райпур аэропорту (Чхаттисгарх, Индия) (195 км)
Погода в Сидхи (Мадхья-Прадеш, Индия) (198 км)
Погода в Самбалпуре (Орисса, Индия) (203 км)
Погода в Ранчи (Джаркханд, Индия) (212 км)

Пояснения к столбцам:

Ветер - указаны скорость ветра в м/с - средняя за 10 мин, порывы в срок и между сроками (в фигурных скобках) и направление, откуда дует ветер: С - северный, СВ - северо-восточный, В - восточный, ЮВ - юго-восточный, Ю - южный, ЮЗ - юго-западный, З - западный, СЗ - северо-западный.
Видимость - горизонтальная дальность видимости в метрах или километрах. При видимости от 1 до 10 км при отсутствии осадков обычно наблюдается дымка, при ухудшении видимости до 1 км и менее - туман. В сухую погоду видимость может ухудшаться дымом, пылью или мглою.
Явления - указаны атмосферные явления, наблюдавшиеся в срок или в последний час перед сроком; фигурными скобками обозначены явления, наблюдавшиеся между сроками (за 1-3 часа до срока); квадратными скобками обозначены град или гололедные отложения с указанием их диаметра в мм.
Облачность - указаны через наклонную черту общая и нижняя облачность в баллах и высота нижней границы облаков в метрах; квадратными скобками обозначены формы облаков: Ci - перистые, Cs - перисто-слоистые, Cc - перисто-кучевые, Ac - высококучевые, As - высокослоистые, Sc - слоисто-кучевые, Ns - слоисто-дождевые, Cu - кучевые, Cb - кучево-дождевые. Подробнее классификацию облаков см. в Атласе облаков (PDF).
T - Температура воздуха - температура, измеренная на высоте 2 м над землей.
Td - Температура точки росы - температура, при понижении до которой содержащийся в воздухе водяной пар достигнет насыщения.
f - Относительная влажность воздуха - влажноcть воздуха, измеренная на высоте 2 м над землей.
Te - Эффективная температура - температура, которую ощущает одетый по сезону человек в тени. Характеристика душности погоды. При расчете учитывается влияние влажности воздуха и скорости ветра на теплоощущения человека.
Tes - Эффективная температура на солнце - температура, которую ощущает человек, с поправкой на солнечный нагрев. Характеристика знойности погоды. Зависит от высоты солнца над горизонтом, облачности и скорости ветра. Ночью, в пасмурную погоду, а также при ветре 12 м/с и более поправка равна нулю.
P - Атмосферное давление - приведенное к уровню моря атмосферное давление.
Po - Атмосферное давление - измеренное на уровне метеостанции атмосферное давление.
Tmin - Минимальная температура - минимум температуры воздуха на высоте 2 м над землей.
Tmax - Максимальная температура - максимум температуры воздуха на высоте 2 м над землей.
R - Количество осадков - Количество выпавших осадков за период времени, мм. При наведении курсора мыши на число - период времени, за который выпало указанное количество осадков.
R24 - Количество осадков - Количество выпавших осадков за 24 часа, мм.
S - Снежный покров - Высота снежного покрова, см. При наведении курсора мыши на число - состояние снежного покрова и степень покрытия местности в баллах.